DELTA 1 R/B(+CAMEO)

Satellite information

Favourite Embed

Satellite Type and Status

ROCKET BODYIN ORBIT

Key statistics

Satellite DELTA 1 R/B(+CAMEO) at a glance.

Uptime

17058

Days in orbit

Revolutions

≈ 13.9

Per day

Orbit

SSO

Sun Synchronous Orbit

Inclination

99.4

Latest

Satellite identification and parameters

Extended collection of information and parameters for DELTA 1 R/B(+CAMEO).

Object identification

Identified? True

Debris? False

Object name: DELTA 1 R/B(+CAMEO)

International designator: 1978-098B

Object number (NORAD): 11081

Object ID (CCSDS): 11081

Country: UNITED STATES OF AMERICA (US)

Current information (Y/N): Y

RCS size: LARGE

Orbital parameters

Period: 103.893 minutes

Inclination: 99.3917 deg

SMA: 7320.661 km

Apoapsis: 963.763 km

Periapsis: 921.289 km

RAAN: 116.5962 deg

Eccentricy: 0.002901

Argument of periapsis: 0.2509 deg

Mean anomaly: 359.8656 deg

Mean motion: 13.86044889 rev/day

Mean motion (dot): 0.00000015 rev/day2

B* drag term: 0.000052263 1/REarth

Two-line elements (TLE)

Creation date: July 6, 2025, 10:36 p.m.

Reference frame: TEME

Reference center: EARTH

Epoch: July 6, 2025, 7:39 p.m. UTC

TLE line 0: 0 DELTA 1 R/B(+CAMEO)

TLE line 1: 1 11081U 78098B 25187.81890634 .00000015 00000-0 52263-4 0 9993

TLE line 2: 2 11081 99.3917 116.5962 0029010 0.2509 359.8656 13.86044889200183

Live tracking on map

Real-time ground track for satellite DELTA 1 R/B(+CAMEO).

In-orbit conjunctions

A list of the most updated potential collisions computed for object DELTA 1 R/B(+CAMEO).

Target Orbit TCA Probability of collision Miss distance Type
COSMOS 1275 DEB LEO 2025-01-14 22:48:59 0.0002304183 388.0 (m) DEBRIS
FENGYUN 1C DEB SSO 2024-12-10 10:14:45 0.0001099746 896.0 (m) DEBRIS

Associated space launch

Research and development satellite in polar orbit

DELTA 1 R/B(+CAMEO) was lifted into orbit during the mission ‘Delta 2910 | Nimbus 7’, on board a Delta 2910 space rocket.

The launch took place on Oct. 24, 1978, 8:14 a.m. from Space Launch Complex 2W.

For more information about the launch, click the button.

Launch to space Delta 2910 | Nimbus 7
Delta 2910 | Nimbus 7

Agency: N/A

Status: Launch Successful

Launch date: Oct. 24, 1978, 8:14 a.m. UTC

Rocket: Delta 2910

Launch pad: Space Launch Complex 2W

Location: Vandenberg SFB, CA, USA

...

Latest news about this satellite

There are no fresh news available about this satellite. Check back as we update our databases every day.


Newsletter sign-up

Weekly statistics, charts and insights to help you stay on top of the space industry.